Home > Time Zones > World Clock > Weather > Iran > Bijar > Past weeks

Flag for Iran Weather past 2 weeks in Bijar, Iran

Now
50 °F

Sprinkles. Passing clouds.


Feels Like: 44 °F
Forecast: 47 / 64 °F
Wind: 16 mph from South

Location: Sanandaj Airport

Current Time: Oct 21, 2014 at 4:30:08 AM

Latest Report: Oct 21, 2014 at 3:30 AM


Visibility: 4 mi

Pressure: 29.98 "Hg

Humidity: 82%

Dew point: 45 °F

Location of BijarLocation

Historic Weather in Bijar — Graph

°F

Bijar temperature yesterday

Maximum temperature yesterday: 66 °F (at 4:30 PM)
Minimum temperature yesterday: 54 °F (at 8:30 AM)
Average temperature yesterday: 59 °F

Past Weeks' High & Low Weather Summary

 TemperatureHumidityPressure
High84 °F (Oct 6, 2:30 PM)94% (Oct 16, 2:23 AM)30.30 "Hg (Oct 16, 2:23 AM)
Low41 °F (Oct 14, 5:22 AM)8% (Oct 7, 4:00 PM)29.86 "Hg (Oct 19, 5:26 PM)
Average61 °F49%30.13 "Hg
* Reported Oct 6 4:21 AM — Oct 21 3:30 AM, Bijar, Weather by CustomWeather, © 2014

Note: Actual official high and low records may vary slightly from our data, if they occured in-between our weather recording intervals... More about our weather records

Advertising

Bijar weather history for previous 24 hours

 ConditionsComfort  
Time TempWeatherWind HumidityBarometerVisibility
3:30 AM
Oct 21
50 °FSprinkles. Passing clouds.16 mph82%29.98 "Hg4 mi
2:30 AM50 °FPassing clouds.21 mph88%29.98 "HgN/A
1:30 AM52 °FRain showers. Passing clouds.32 mph82%29.95 "Hg4 mi
12:30 AM55 °FPassing clouds.2 mph77%29.89 "HgN/A
11:25 PM
Oct 20
55 °FPassing clouds.No wind77%29.92 "HgN/A
10:20 PM57 °FPassing clouds.5 mph72%29.92 "HgN/A
9:30 PM55 °FPassing clouds.2 mph77%29.92 "HgN/A
8:24 PM55 °FPassing clouds.5 mph77%29.92 "HgN/A
7:20 PM59 °FPassing clouds.2 mph68%29.89 "HgN/A
6:21 PM61 °FPassing clouds.2 mph59%29.89 "HgN/A
5:30 PM63 °FScattered clouds.7 mph52%29.86 "HgN/A
4:30 PM66 °FBroken clouds.18 mph43%29.89 "HgN/A
3:30 PM64 °FBroken clouds.No wind60%29.89 "HgN/A
2:30 PM64 °FBroken clouds.5 mph64%29.89 "HgN/A
1:30 PM61 °FScattered showers. Broken clouds.5 mph72%29.92 "Hg5 mi
12:30 PM61 °FBroken clouds.No wind72%29.92 "HgN/A
11:30 AM59 °FBroken clouds.2 mph77%29.95 "HgN/A
10:30 AM55 °FBroken clouds.7 mph88%29.95 "Hg5 mi
9:30 AM54 °FThunderstorms. More clouds than sun.5 mph94%29.95 "Hg2 mi
8:30 AM54 °FThunderstorms. More clouds than sun.No wind94%29.95 "Hg2 mi
6:30 AM61 °FSprinkles. Partly cloudy.22 mph55%29.89 "Hg5 mi
5:24 AM59 °FPassing clouds.18 mph55%29.89 "HgN/A
Weather by CustomWeather, © 2014

See weather overviewHow to use our weather pages